Terminal Aerodrome Forecast
Issued by NWS

Home | Current Version | Previous Version | Text Only | Print | Product List | Glossary On
Versions: 1 2 3 4 5 6 7 8 9 10 11 12 13 14 15
000
FTUS42 KMLB 311700
TAFFPR
TAF
KFPR 311724Z 3118/0118 10009KT P6SM VCTS FEW020 BKN045CB OVC090
      TEMPO 3118/3120 3SM TSRA BKN035CB
     FM312200 15009KT P6SM SCT040 BKN120
     FM010100 16005KT P6SM SCT060 BKN250
     FM011400 20004KT P6SM FEW020 SCT250=

USA.gov is the U.S. government's official web portal to all federal, state and local government web resources and services.